Starlink 6047

operational
NORAD ID: 56460 Int'l Des: 2023-064 Owner: SPXS Country: US Constellation: starlink
LEOCIRCULAR

Starlink 6047について

説明を読み込み中...

リアルタイム位置

3D地球を読み込み中...

次回通過

高度履歴

Altitude vs Time

uPlot chart will show altitude changes over time

軌道要素

1 56460U 23064N 25351.61624856 .00002159 00000-0 18873-3 0 9997
2 56460 69.9993 351.3367 0002999 270.0635 90.0180 14.98322890142953
Epoch: Dec 17, 2025 • Age: 7 hours

現在のステータス

高度 574.2 km
速度 7.57 km/s
衛星直下点 5.24°N, 112.28°E
打ち上げ日 May 10, 2023
運用期間 2.6 years
タイプ internet

技術仕様

分類 Payload
質量 305.00 kg
乾燥質量 290.00 kg
総質量 305.00 kg
長さ 0.20 m
直径 2.80 m
スパン 9.00 m
形状 Box + pan
製造者 SPXS
バスタイプ Starlink
フェーズステータス In Orbit
所有者/国 SPXS/US

大規模コンステレーション

Loading constellations...